Location: Peterborough
(44.3091°N, 78.3197°W)
Time: 00:51:10
(UTC-04:00)

S-56A Canister/Altair - Pass Details

Date: 24 March 2023
Orbit: 639 x 2492 km, 38.9° (Epoch: 02 June)

Event Time Altitude Azimuth Distance (km) Brightness Sun altitude
Rises 20:22:06 0° 233° (SW) 4,996 12.3 -10.0°
Reaches altitude 10° 20:25:07 10° 229° (SW) 4,226 11.8 -10.5°
Maximum altitude 20:36:47 56° 156° (SSE) 2,622 10.0 -12.5°
Enters shadow 20:49:56 14° 86° (E) 4,850 11.0 -14.8°
